Location: Le Domaine
(47.0333°N, 76.5361°W)
Time: 13:21:18
(UTC-05:00)

ISS - Pass Details

Date: 26 October 2019
Orbit: 412 x 421 km, 51.6° (Epoch: 13 November)

Event Time Altitude Azimuth Distance (km) Brightness Sun altitude
Exits shadow 06:53:48 - 234° (SW) 2,012 -0.7 -8.4°
Reaches altitude 10° 06:55:03 10° 232° (SW) 1,501 -1.3 -8.2°
Maximum altitude 06:58:23 65° 150° (SSE) 467 -3.3 -7.7°
Drops below altitude 10° 07:01:45 10° 68° (ENE) 1,505 0.1 -7.1°
Sets 07:03:51 0° 66° (ENE) 2,371 1.1 -6.8°
